1st Responders/1st Detectors/Storm Spotters Weather Summary for Knox County, KY

Forecast Maps


Reg. NEXRAD Animation


National Fire Danger: Day 1 & 2 Map

Current NWS Watch/Warnings

SPC Convective Day 1 Outlook


Day 2 Outlook

(Click images to enlarge|Page will refresh every 5 minutes)
UK Ag. Weather Center Desktop Severe Weather Service[HERE]
Knox County, KY Hazardous Weather Outlook Webcast
(9 AM to 9 PM Mon-Fri)
[Fast]
[Dial-up]


UKAWC 1st Detectors/1st Responders Precision Weather Forecast For KNOX County, Kentucky
(based on the NWS County Digital Forecast)

ISSUED AT 21:00 UTC ON THURSDAY OCT 29 2020
DAY THURSDAY
EDT 3HR 6P 7P
MAX/MIN -- 72°
TEMP 65° 63°
SKY COVER 75% 82%
Clouds
DEW PT 61° 58°
RH 83% 83%
POP 12HR -- --
RAIN/SNOW (liq.equ) -- --
SNOWFALL -- --
WIND SPEED(MPH) 9 8
WIND Gust(MPH) 17 17
WIND DIR W W
DEW Mod Dew Mod Dew
HeatIndex 65 63
Rain Showers Chance Chance
Fog -- --
Frost -- --
WIND CHILL -- --
SPRAY COND
DRY COND
LIVESTOCK COLDSTRESS
LIVESTOCK HEATSTRESS 64.42 62.61



DAY FRIDAY SATURDAY SAT SUNDAY MONDAY TUESDAY WEDNESDAY
EDT 6HR 8P 9P 10P 11P MIDN 1A 2A 3A 4A 5A 6A 7A 8A 9A 10A 11A NOON 1P 2P 3P 4P 5P 6P 7P 8P 9P 10P 11P MIDN 1A 2A 3A 4A 5A 8A 11A 2P 5P 8P 2A 8A 2P 8P 2A 8A 2P 8P 2A 8A 2P 8P 2A 8A 2P 8P
MAX/MIN -- -- -- -- -- -- -- -- -- -- -- -- 43° -- -- -- -- -- -- -- -- -- -- 49° -- -- -- -- -- -- -- -- -- -- 34° -- -- 61° -- -- 45° 58° -- -- 27° 47° -- -- 27° 56° -- -- 36° 65° --
TEMP 59° 58° 56° 54° 52° 49° 47° 45° 45° 45° 45° 43° 43° 43° 43° 43° 45° 45° 47° 47° 49° 49° 47° 45° 43° 41° 40° 40° 38° 38° 36° 36° 36° 36° 34° 49° 58° 59° 49° 45° 47° 58° 45° 34° 27° 45° 36° 29° 27° 54° 47° 40° 38° 63° 52°
SKY COVER 89% 93% 95% 97% 98% 99% 100% 100% 100% 99% 97% 95% 94% 95% 97% 97% 93% 87% 79% 69% 59% 48% 39% 30% 24% 18% 14% 12% 11% 11% 12% 12% 12% 13% 14% 7% 19% 30% 46% 50% 72% 54% 6% 37% 5% 1% 2% 5% 10% 2% 2% 6% 13% 8% 27%
Clouds
DEW PT 56° 54° 54° 52° 49° 49° 47° 45° 45° 43° 43° 43° 41° 41° 40° 40° 40° 40° 38° 38° 38° 36° 36° 36° 36° 36° 36° 36° 36° 36° 36° 36° 34° 34° 32° 36° 38° 40° 43° 43° 45° 45° 29° 23° 20° 20° 22° 23° 22° 27° 32° 32° 31° 38° 40°
RH 89% 89% 93% 92% 92% 100% 100% 100% 95% 95% 93% 95% 96% 96% 92% 89% 82% 78% 73% 68% 65% 63% 65% 70% 76% 81% 81% 85% 92% 92% 96% 96% 91% 95% 92% 61% 46% 49% 76% 92% 96% 60% 53% 64% 71% 36% 56% 77% 80% 35% 58% 75% 78% 39% 65%
POP 12HR 97% -- -- -- -- -- -- -- -- -- -- -- 75% -- -- -- -- -- -- -- -- -- -- -- 9% -- -- -- -- -- -- -- -- -- 1% -- -- -- 0% -- 10% -- 11% -- 5% -- 1% -- 1% -- 1% -- 1% -- 1%
RAIN/SNOW (liq.equ) 0.09in -- -- -- -- -- 0.09in -- -- -- -- -- 0.00in -- -- -- -- -- 0.00in -- -- -- -- -- 0.00in -- -- -- -- -- 0.00in -- -- -- 0.00in -- 0.00in -- 0.00in 0.00in 0.00in -- -- -- -- -- -- -- -- -- -- -- -- -- --
SNOWFALL 0in -- -- -- -- -- 0in -- -- -- -- -- 0in -- -- -- -- -- 0in -- -- -- -- -- 0in -- -- -- -- -- 0in -- -- -- 0in -- 0in -- 0in 0in 0in -- -- -- -- -- -- -- -- -- -- -- -- -- --
WIND SPEED(MPH) 8 8 8 8 8 8 8 7 7 6 6 6 6 6 7 7 7 7 7 7 6 6 5 5 2 2 2 2 2 1 1 1 1 1 0 2 5 5 2 6 7 10 8 7 5 7 2 0 0 5 2 2 2 6 2
WIND DIR W W NW NW NW NW NW NW NW NW NW NW NW NW NW NW NW NW NW NW N N N N N N NE NE NE E E E NE NE E E S S S S SW W NW NW NW NW W W S SW S S S SW S
HeatIndex 59 58 56 54 52 49 47 45 45 41 41 40 39 39 38 40 41 45 47 47 49 49 47 45 42 40 38 37 35 38 36 36 36 36 34 49 58 59 49 41 47 58 45 29 22 41 34 29 27 54 47 37 35 63 52
Rain Showers Chance Chance Likely Likely Definite Chance Chance Slight Chance -- -- -- -- -- -- -- -- -- -- -- -- -- -- -- -- -- -- -- -- -- -- -- -- -- -- -- -- -- -- -- -- -- -- -- -- -- -- -- -- -- -- -- -- -- -- --
Fog -- -- Patchy Patchy Patchy Patchy Patchy -- -- -- -- -- -- -- -- -- -- -- -- -- -- -- -- -- -- -- -- -- -- -- -- -- -- -- -- -- -- -- -- -- -- -- -- -- -- -- -- -- -- -- -- -- -- -- --
Frost -- -- -- -- -- -- -- -- -- -- -- -- -- -- -- -- -- -- -- -- -- -- -- -- -- -- -- -- -- -- -- -- -- -- Areas of -- -- -- -- -- -- -- -- -- Widespread -- -- Widespread Widespread -- -- -- -- -- --
WIND CHILL -- -- -- -- -- -- -- 41° 41° 42° 42° 39° 39° 39° 39° 39° 41° 41° -- -- -- -- -- 43° -- -- -- -- -- -- -- -- -- -- -- -- -- -- -- 42° -- -- 41° 28° 22° 41° -- -- -- -- -- -- -- -- --
SPRAY COND
DRY COND
LIVESTOCK COLDSTRESS
LIVESTOCK HEATSTRESS 58.99 58.05 56.11 54.21 52.30 49.00 47.00 45.00 45.38 45.38 45.53 43.43 43.35 43.35 43.70 43.96 46.37 46.67 48.75 49.08 50.89 50.99 49.27 47.28 45.09 42.86 41.96 41.55 38.92 38.92 36.50 36.50 37.13 36.63 35.09 51.10 58.24 58.94 50.29 45.61 47.26 58.18 48.57 38.91 32.07 49.86 41.52 32.77 30.50 55.72 49.73 42.59 40.52 61.59 53.31

Click on individual weather variable above in left-hand column (ie., TEMP, RH, QPF 12HR) to view state forecast maps






NWS 48 Hr. Forecast Maps,

Regional Hourly Observations For KNOX County, Kentucky
Issued at 500 PM EDT THU OCT 29 2020
SOUTHEAST KENTUCKY
  
CITY           SKY/WX    TMP DP  RH WIND       PRES   REMARKS
JACKSON        CLOUDY    60  56  86 CALM      29.57R                  
LONDON         CLOUDY    64  62  93 NW8       29.57R                  
SOMERSET       CLOUDY    61  57  88 CALM      29.59R                  
MIDDLESBORO    CLOUDY    70  67  91 SW5       29.55F                  
MONTICELLO     CLOUDY    66  66 100 NW5       29.59R                  


Current NOWCAST not available:
Nowcasts are not issued routinely during fair weather. Only when
precipitation or other significant weather is occuring in this county will these
forecasts be issued. Currently, there is no short term forecast in effect.


Fire Weather Forecast For KNOX County, KY
Provided by the National Weather Service:

Issued at: Thu Oct 29 17:05:01 EDT 2020

405 PM EDT Thu Oct 29 2020

                      Tonight      Fri          Fri Night    Sat          

Cloud Cover           Cloudy       Mcldy        Mclear       Mclear       
Chance precip (%)     70           0            0            0            
Precip type           showers      None         None         None         
Temp (24H TREND)      42 (-20)     50 (-21)     32           62           
Rh % (24H TREND)      100 (0)      56 (-23)     100          42           
20ftwnd-AM(mph)                    NW 3-7 G16                Lgt/Var      
20ftwnd-PM(mph)       NW 6-10 G19  N 2-6 G13    Lgt/Var      Lgt/Var      
Precip duration       2                                                   
Precip begin          8 PM                                                
Precip end            8 AM                                                
Precip amount         0.08         0.00         0.00         0.00         
LAL                   1            1            1            1            
Haines Index (MID)                 2                         3            
Mixing hgt(ft-AGL)                 3600                      2200         
Transport wnd (mph)                N 10                      S  8         
Vent rate (kt-ft)                  31013                     16231        
ADI Early             27 Fair      36 Fair      3 Very Poor  19 Gen Poor  
ADI Late              28 Fair      34 Fair      4 Very Poor  23 Fair      
Max LVORI Early       5            4            7            7            
Max LVORI Late        6            3            9            3            

Remarks...None.


SPC's Fire Weather Web Tool (Excellent!), SPC's Fire Weather Outlooks, NWS Fire Weather WEB, Fire Danger Class Map,
Keetch-Byram Drought Index, ROMAN Web, Haines Index ,
WFAS's 10-hr Dead Fuel Moist., WFAS's 100-hr Dead Fuel Moist., Probablity of Ignition, Visual blackness Map, Palmer Drought Index, HPC's Rainfall Forecast Maps


Hazardous Weather Outlook For KNOX County, Kentucky
538 PM EDT Thu Oct 29 2020

 DAY ONE  Tonight.

No hazardous weather is expected at this time.  

 DAYS TWO THROUGH SEVEN  Friday through Wednesday.

Frost is likely area-wide Friday night. A killing freeze will be 
possible Sunday night.

 SPOTTER INFORMATION STATEMENT  

Spotter activation is not anticipated. 

Latest KNOX County, Kentucky Watches, Warnings and Advisories.
Additional Drought Info.: UKAWC Drought Page, Kentucky Drought Watch


7-Day Forecast For KNOX County, KY

TONIGHT
Cooler, cloudy. Patchy fog through the night. Showers likely in the evening. A chance of showers late. Lows in the mid 40s. Northwest winds around 10 mph in the evening becoming light. Chance of rain 70 percent.

FRIDAY
Much cooler. Cloudy in the morning then becoming mostly sunny. Highs in the upper 40s. Light winds.

FRIDAY NIGHT
Cold. Mostly clear. Patchy fog. Areas of frost late. Lows in the lower 30s. Light winds.

SATURDAY
Sunny. Areas of frost in the morning. Highs in the lower 60s. Light winds.

SATURDAY NIGHT
Mostly cloudy. Lows in the mid 40s. Light winds.

SUNDAY
Partly sunny. Highs in the upper 50s.

SUNDAY NIGHT
Cold. Mostly clear. Widespread frost. Lows in the upper 20s.

MONDAY
Sunny. Highs in the upper 40s.

MONDAY NIGHT
Cold, clear. Widespread frost. Lows in the upper 20s.

TUESDAY
Sunny. Widespread frost. Highs in the upper 50s.

TUESDAY NIGHT
Cold, clear. Areas of frost. Lows in the mid 30s.

WEDNESDAY
Sunny. Highs in the mid 60s.

WEDNESDAY NIGHT
Partly cloudy. Lows in the lower 40s.

THURSDAY
Mostly sunny. Highs in the upper 60s.

Ag Weather Center, Department of Biosystems & Agricultural Engineering, University of Kentucky